FW4667 Weather Reports


time (UTC)temp
C
wind
direction
speed
KPH
gust
KPH
rain 1hr
cm
rain 24hr
cm
rain mn
cm
humidity
%
barometer
mb
20260505124607 11 338 0.0 0.0 0.00 0.00 0.00 93 1017.4
20260505124105 11 338 0.0 0.0 0.00 0.00 0.00 93 1017.4
20260505123602 11 338 0.0 0.0 0.00 0.00 0.00 93 1017.2
20260505123104 10 338 0.0 0.0 0.00 0.00 0.00 93 1017.2
20260505122558 10 338 0.0 0.0 0.00 0.00 0.00 93 1017.2
20260505122056 10 338 0.0 0.0 0.00 0.00 0.00 93 1017.3
20260505121556 10 338 0.0 0.0 0.00 0.00 0.00 93 1017.3
20260505121057 10 352 0.0 0.0 0.00 0.00 0.00 93 1017.3
20260505120554 10 334 0.0 0.0 0.00 0.00 0.00 93 1017.2
20260505120052 10 343 0.0 0.0 0.00 0.00 0.00 93 1017.1
20260505115550 10 343 0.0 0.0 0.00 0.00 0.00 93 1016.9
20260505115052 10 3 0.0 0.0 0.00 0.00 0.00 93 1017.1
20260505114037 10 7 0.0 0.0 0.00 0.00 0.00 93 1017.0
20260505113533 10 17 0.0 0.0 0.00 0.00 0.00 93 1016.9
20260505113036 10 1 0.0 0.0 0.00 0.00 0.00 93 1016.9
20260505112532 10 98 0.0 0.0 0.00 0.00 0.00 93 1016.8
20260505112036 10 99 0.0 0.0 0.00 0.00 0.00 93 1016.9
20260505111532 10 99 0.0 0.0 0.00 0.00 0.00 93 1016.7
20260505111031 10 100 0.0 0.0 0.00 0.00 0.00 93 1016.8
20260505101530 10 111 3.2 9.7 0.00 0.00 0.00 92 1016.3
20260505101029 10 108 0.0 6.4 0.00 0.00 0.00 92 1016.2
20260505100524 10 118 0.0 0.0 0.00 0.00 0.00 92 1016.2
20260505100018 11 118 0.0 0.0 0.00 0.00 0.00 91 1016.3
20260505095512 11 122 0.0 0.0 0.00 0.00 0.00 92 1016.3
20260505095005 11 155 0.0 0.0 0.00 0.00 0.00 91 1016.2
20260505094459 11 155 0.0 1.6 0.00 0.00 0.00 91 1016.1
20260505093953 11 155 1.6 3.2 0.00 0.00 0.00 91 1016.0
20260505093448 11 156 3.2 4.8 0.00 0.00 0.00 91 1016.0
20260505092941 11 158 1.6 4.8 0.00 0.00 0.00 91 1016.1
20260505092435 10 229 1.6 3.2 0.00 0.00 0.00 91 1016.0
20260505091929 11 125 1.6 3.2 0.00 0.00 0.00 91 1016.0
20260505091426 11 210 1.6 3.2 0.00 0.00 0.00 91 1015.9
20260505090918 11 141 0.0 1.6 0.00 0.00 0.00 91 1015.9
20260505090412 11 62 1.6 3.2 0.00 0.00 0.00 91 1015.8
20260505085905 11 62 3.2 4.8 0.00 0.00 0.00 90 1015.8
20260505084406 11 276 1.6 3.2 0.00 0.00 0.00 90 1015.7
20260505083906 11 276 1.6 3.2 0.00 0.00 0.00 90 1015.5
20260505083406 11 276 1.6 3.2 0.00 0.00 0.00 90 1015.5
20260505082407 11 276 1.6 6.4 0.00 0.00 0.00 90 1015.5
20260505081907 11 276 0.0 6.4 0.00 0.00 0.00 89 1015.5
20260505081403 11 276 0.0 0.0 0.00 0.00 0.00 89 1015.5
20260505080901 11 276 0.0 0.0 0.00 0.00 0.00 89 1015.5
20260505080400 11 276 0.0 1.6 0.00 0.00 0.00 89 1015.4
20260505075859 11 276 1.6 4.8 0.00 0.00 0.00 89 1015.5
20260505075357 11 276 1.6 4.8 0.00 0.00 0.00 89 1015.4
20260505074854 11 278 1.6 4.8 0.00 0.00 0.00 88 1015.5
20260505073351 11 276 3.2 4.8 0.00 0.00 0.00 88 1015.3
20260505072850 11 276 1.6 4.8 0.00 0.00 0.00 88 1015.2
20260505072351 11 258 1.6 3.2 0.00 0.00 0.00 88 1015.1
20260505071848 11 237 0.0 3.2 0.00 0.00 0.00 88 1015.0
20260505071340 11 237 1.6 4.8 0.00 0.00 0.00 88 1015.0
20260505070326 12 219 1.6 3.2 0.00 0.00 0.00 87 1014.9
20260505065821 12 272 0.0 3.2 0.00 0.00 0.00 87 1014.9
20260505065316 12 272 0.0 3.2 0.00 0.00 0.00 87 1014.8
20260505064313 12 272 4.8 12.9 0.00 0.00 0.00 87 1014.7
20260505063811 12 283 6.4 12.9 0.00 0.00 0.00 87 1014.6
20260505063311 12 257 8.0 16.1 0.00 0.00 0.00 86 1014.6
20260505062810 12 280 8.0 16.1 0.00 0.00 0.00 86 1014.5
20260505062311 12 252 8.0 14.5 0.00 0.00 0.00 86 1014.5
20260505061812 12 280 8.0 14.5 0.00 0.00 0.00 86 1014.5
20260505060811 12 267 8.0 12.9 0.00 0.00 0.00 85 1014.3
20260505060311 12 269 8.0 12.9 0.00 0.00 0.00 85 1014.2
20260505055812 12 268 8.0 12.9 0.00 0.00 0.00 85 1014.1
20260505055309 12 267 8.0 12.9 0.00 0.00 0.00 85 1014.2
20260505054812 12 288 6.4 12.9 0.00 0.00 0.00 84 1014.1
20260505054312 12 283 3.2 9.7 0.00 0.00 0.00 84 1014.1
20260505053807 13 256 3.2 6.4 0.00 0.00 0.00 83 1014.2
20260505053306 13 276 3.2 6.4 0.00 0.00 0.00 83 1014.0
20260505051755 13 237 0.0 4.8 0.00 0.00 0.00 83 1013.8
20260505051251 13 152 0.0 1.6 0.00 0.00 0.00 82 1013.8
20260505050751 13 152 1.6 4.8 0.00 0.00 0.00 82 1013.7
20260505050249 13 101 1.6 4.8 0.00 0.00 0.00 81 1013.7
20260505041243 15 225 4.8 11.3 0.00 0.00 0.00 77 1013.3
20260505040243 15 255 8.0 14.5 0.00 0.00 0.00 77 1013.2
20260505035745 15 270 8.0 14.5 0.00 0.00 0.00 76 1013.1
20260505034743 15 233 6.4 12.9 0.00 0.00 0.00 76 1013.1
20260505034236 15 265 8.0 20.9 0.00 0.00 0.00 75 1012.9
20260505033738 15 235 9.7 20.9 0.00 0.00 0.00 75 1012.8
20260505033225 15 281 11.3 20.9 0.00 0.00 0.00 75 1012.7
20260505032718 15 263 12.9 24.1 0.00 0.00 0.00 74 1012.6
20260505031707 16 272 11.3 24.1 0.00 0.00 0.00 73 1012.6
20260505031200 16 272 12.9 24.1 0.00 0.00 0.00 72 1012.6
20260505030656 16 271 14.5 24.1 0.00 0.00 0.00 71 1012.5
20260505025642 17 269 12.9 22.5 0.00 0.00 0.00 69 1012.5
20260505025136 17 266 12.9 20.9 0.00 0.00 0.00 69 1012.5
20260505024631 17 275 11.3 20.9 0.00 0.00 0.00 68 1012.5
20260505024125 17 272 12.9 22.5 0.00 0.00 0.00 68 1012.4
20260505023618 17 252 14.5 25.7 0.00 0.00 0.00 68 1012.3
20260505023120 17 241 14.5 25.7 0.00 0.00 0.00 68 1012.4
20260505022607 17 260 14.5 25.7 0.00 0.00 0.00 67 1012.4
20260505022054 18 267 17.7 32.2 0.00 0.00 0.00 67 1012.5
20260505021549 18 262 19.3 35.4 0.00 0.00 0.00 67 1012.5
20260505021042 18 281 19.3 35.4 0.00 0.00 0.00 67 1012.6
20260505020537 18 283 17.7 33.8 0.00 0.00 0.00 66 1012.5
20260505020031 18 294 19.3 32.2 0.00 0.00 0.00 66 1012.5
20260505015019 18 278 19.3 35.4 0.00 0.00 0.00 65 1012.5
20260505014512 18 268 19.3 35.4 0.00 0.00 0.00 64 1012.6
20260505014007 19 271 20.9 35.4 0.00 0.00 0.00 63 1012.7
20260505012955 19 275 22.5 37.0 0.00 0.00 0.00 62 1012.6
20260505012449 20 243 22.5 38.6 0.00 0.00 0.00 62 1012.6
20260505011942 20 276 17.7 38.6 0.00 0.00 0.00 61 1012.7
20260505011436 20 281 16.1 32.2 0.00 0.00 0.00 62 1012.8
20260505010930 20 252 17.7 33.8 0.00 0.00 0.00 62 1012.8
20260505005430 20 288 14.5 27.4 0.00 0.00 0.00 62 1013.0
20260505004927 20 248 14.5 29.0 0.00 0.00 0.00 63 1013.0
20260505004426 20 235 16.1 33.8 0.00 0.00 0.00 62 1013.1
20260505003927 20 272 16.1 33.8 0.00 0.00 0.00 63 1013.0
20260505003426 20 274 17.7 32.2 0.00 0.00 0.00 62 1013.0
20260505002924 20 258 19.3 32.2 0.00 0.00 0.00 62 1013.0
20260505002424 20 340 17.7 30.6 0.00 0.00 0.00 61 1013.0
20260505001922 21 289 16.1 30.6 0.00 0.00 0.00 61 1013.1
20260505001423 21 278 16.1 25.7 0.00 0.00 0.00 60 1013.1
20260505000923 21 266 14.5 29.0 0.00 0.00 0.00 60 1013.1
20260504235921 21 292 14.5 24.1 0.00 0.00 0.00 60 1013.0
20260504235421 21 245 14.5 27.4 0.00 0.00 0.00 59 1013.1
20260504234921 21 284 14.5 27.4 0.00 0.00 0.00 59 1013.2
20260504234419 21 266 14.5 27.4 0.00 0.00 0.00 58 1013.0
20260504233918 20 283 16.1 30.6 0.00 0.00 0.00 59 1013.1
20260504233417 20 295 16.1 30.6 0.00 0.00 0.00 58 1013.2
20260504231916 20 253 17.7 32.2 0.00 0.00 0.00 58 1013.1
20260504231412 20 289 17.7 32.2 0.00 0.00 0.00 57 1013.1
20260504230913 20 274 19.3 30.6 0.00 0.00 0.00 57 1013.0
20260504230412 20 287 19.3 30.6 0.00 0.00 0.00 57 1013.0
20260504225412 20 280 14.5 27.4 0.00 0.00 0.00 57 1013.1
20260504224911 20 285 16.1 27.4 0.00 0.00 0.00 57 1013.2
20260504224410 20 292 12.9 27.4 0.00 0.00 0.00 57 1013.4
20260504223912 21 289 11.3 22.5 0.00 0.00 0.00 56 1013.2
20260504223408 21 276 11.3 22.5 0.00 0.00 0.00 56 1013.4
20260504222909 21 287 8.0 17.7 0.00 0.00 0.00 57 1013.3
20260504222406 21 296 4.8 12.9 0.00 0.00 0.00 58 1013.5
20260504221906 20 159 3.2 8.0 0.00 0.00 0.00 63 1013.4
20260504221409 19 201 3.2 9.7 0.00 0.00 0.00 63 1013.5
20260504220907 19 194 3.2 9.7 0.00 0.00 0.00 65 1013.6
20260504220404 19 149 4.8 6.4 0.00 0.00 0.00 67 1013.6
20260504215905 18 154 4.8 8.0 0.00 0.00 0.00 65 1013.5
20260504215404 20 146 4.8 8.0 0.00 0.00 0.00 67 1013.5
20260504214902 21 157 1.6 8.0 0.00 0.00 0.00 62 1013.5
20260504214401 22 136 3.2 11.3 0.00 0.00 0.00 58 1013.5
20260504213900 22 254 4.8 11.3 0.00 0.00 0.00 54 1013.6
20260504213401 21 207 8.0 12.9 0.00 0.00 0.00 55 1013.7
20260504212900 21 302 9.7 12.9 0.00 0.00 0.00 57 1013.7
20260504212359 20 316 9.7 12.9 0.00 0.00 0.00 60 1013.9
20260504211400 19 304 6.4 11.3 0.00 0.00 0.00 66 1013.7
20260504210858 17 330 9.7 12.9 0.00 0.00 0.00 75 1013.7
20260504210358 15 50 11.3 14.5 0.00 0.00 0.00 78 1013.7
20260504205859 15 357 11.3 14.5 0.00 0.00 0.00 79 1013.9
20260504205354 15 20 11.3 14.5 0.00 0.00 0.00 76 1014.0
20260504204854 15 343 9.7 14.5 0.00 0.00 0.00 77 1014.0
20260504204356 15 339 9.7 14.5 0.00 0.00 0.00 78 1013.9
20260504203858 14 48 8.0 12.9 0.00 0.00 0.00 77 1013.9
20260504203354 14 11 9.7 12.9 0.00 0.00 0.00 79 1014.0
20260504202854 14 25 9.7 12.9 0.00 0.00 0.00 78 1013.9
20260504202354 14 29 9.7 12.9 0.00 0.00 0.00 79 1013.9
20260504201854 14 36 9.7 12.9 0.00 0.00 0.00 79 1013.9
20260504200851 14 30 12.9 16.1 0.00 0.00 0.00 78 1014.0
20260504200350 14 23 11.3 14.5 0.00 0.00 0.00 77 1014.1
20260504195851 14 31 11.3 14.5 0.00 0.00 0.00 78 1014.0
20260504194350 14 94 11.3 16.1 0.00 0.00 0.00 78 1014.0
20260504193850 14 44 12.9 16.1 0.00 0.00 0.00 78 1014.0
20260504193350 13 37 12.9 19.3 0.00 0.00 0.00 80 1014.0
20260504192850 13 35 14.5 19.3 0.00 0.00 0.00 80 1014.1
20260504192346 13 45 14.5 19.3 0.00 0.00 0.00 79 1014.1
20260504191846 13 37 12.9 17.7 0.00 0.00 0.00 78 1014.1
20260504191346 14 34 12.9 19.3 0.00 0.00 0.00 76 1014.1
20260504190846 15 26 14.5 19.3 0.00 0.00 0.00 75 1014.0
20260504190347 15 40 12.9 17.7 0.00 0.00 0.00 74 1014.1
20260504185846 15 28 11.3 14.5 0.00 0.00 0.00 75 1014.1
20260504185346 15 49 11.3 17.7 0.00 0.00 0.00 74 1014.1
20260504184849 14 22 11.3 17.7 0.00 0.00 0.00 76 1014.1
20260504184346 16 63 12.9 17.7 0.00 0.00 0.00 69 1014.0
20260504183846 16 15 12.9 16.1 0.00 0.00 0.00 68 1014.0
20260504182846 16 339 9.7 14.5 0.00 0.00 0.00 70 1014.1
20260504182345 16 18 9.7 14.5 0.00 0.00 0.00 68 1014.3
20260504181844 16 358 11.3 16.1 0.00 0.00 0.00 68 1014.3
20260504181344 16 330 14.5 17.7 0.00 0.00 0.00 68 1014.2
20260504180845 16 342 16.1 20.9 0.00 0.00 0.00 69 1014.3
20260504180345 16 328 17.7 20.9 0.00 0.00 0.00 68 1014.4
20260504175844 16 324 16.1 19.3 0.00 0.00 0.00 69 1014.3
20260504175343 16 321 14.5 19.3 0.00 0.00 0.00 69 1014.2
20260504174844 16 340 14.5 17.7 0.00 0.00 0.00 69 1014.0
20260504174345 16 345 14.5 17.7 0.00 0.00 0.00 73 1014.1
20260504173844 15 350 12.9 17.7 0.00 0.00 0.00 75 1014.1
20260504173345 15 359 11.3 14.5 0.00 0.00 0.00 76 1014.1
20260504172845 14 4 11.3 14.5 0.00 0.00 0.00 75 1014.1
20260504172345 15 1 11.3 14.5 0.00 0.00 0.00 75 1014.1
20260504171846 15 6 11.3 14.5 0.00 0.00 0.00 74 1014.2
20260504171343 14 15 11.3 16.1 0.00 0.00 0.00 74 1014.1
20260504170844 15 338 11.3 16.1 0.00 0.00 0.00 74 1014.1
20260504170345 15 345 11.3 14.5 0.00 0.00 0.00 74 1014.2
20260504160335 15 96 1.6 3.2 0.00 0.00 0.00 74 1014.4
20260504150831 15 21 0.0 3.2 0.00 0.00 0.00 73 1013.8
20260504150328 15 283 0.0 1.6 0.00 0.00 0.00 74 1013.8
20260504141323 12 137 1.6 3.2 0.00 0.00 0.00 81 1013.4
20260504140826 12 137 3.2 4.8 0.00 0.00 0.00 80 1013.4
20260504140323 12 146 3.2 4.8 0.00 0.00 0.00 79 1013.3
20260504130810 11 204 9.7 12.9 0.00 0.00 0.00 83 1012.7
20260504130311 11 208 9.7 12.9 0.00 0.00 0.00 82 1012.6